Time,TemperatureF,DewpointF,PressureIn,WindDirection,WindDirectionDegrees,WindSpeedMPH,WindSpeedGustMPH,Humidity,HourlyPrecipIn,Conditions,Clouds,dailyrainin,SoftwareType,DateUTC
2013-07-16 00:05:00,77.0,54.0,30.23,ENE,75,0.0,0.0,45,0.00,,,-99.99,Weather View 32 v60,2013-07-16 04:05:00,
2013-07-16 00:10:00,76.8,54.4,30.23,ENE,75,0.0,0.0,46,0.00,,,-99.99,Weather View 32 v60,2013-07-16 04:10:00,
2013-07-16 00:15:00,76.6,54.2,30.23,ENE,75,0.0,0.0,46,0.00,,,-99.99,Weather View 32 v60,2013-07-16 04:15:00,
2013-07-16 00:20:00,76.5,54.1,30.23,ENE,75,0.0,0.0,46,0.00,,,-99.99,Weather View 32 v60,2013-07-16 04:20:00,
2013-07-16 00:25:00,76.3,54.5,30.23,ENE,75,0.0,0.0,47,0.00,,,-99.99,Weather View 32 v60,2013-07-16 04:25:00,
2013-07-16 00:30:00,76.3,54.5,30.23,ENE,75,0.0,0.0,47,0.00,,,-99.99,Weather View 32 v60,2013-07-16 04:30:00,
2013-07-16 00:35:00,76.1,54.3,30.23,ENE,75,0.0,0.0,47,0.00,,,-99.99,Weather View 32 v60,2013-07-16 04:35:00,
2013-07-16 00:40:00,75.9,53.6,30.23,ENE,75,0.0,0.0,46,0.00,,,-99.99,Weather View 32 v60,2013-07-16 04:40:00,
2013-07-16 00:45:00,75.9,53.6,30.23,ENE,75,0.0,0.0,46,0.00,,,-99.99,Weather View 32 v60,2013-07-16 04:45:00,
2013-07-16 00:50:00,75.7,54.0,30.23,ENE,75,0.0,0.0,47,0.00,,,-99.99,Weather View 32 v60,2013-07-16 04:50:00,
2013-07-16 00:55:00,75.6,53.8,30.23,ENE,75,0.0,0.0,47,0.00,,,-99.99,Weather View 32 v60,2013-07-16 04:55:00,
2013-07-16 01:00:00,75.6,53.3,30.23,ENE,75,0.0,0.0,46,0.00,,,-99.99,Weather View 32 v60,2013-07-16 05:00:00,
2013-07-16 01:05:00,75.4,53.1,30.23,ENE,75,0.0,0.0,46,0.00,,,-99.99,Weather View 32 v60,2013-07-16 05:05:00,
2013-07-16 01:10:00,75.4,53.7,30.23,ENE,75,0.0,0.0,47,0.00,,,-99.99,Weather View 32 v60,2013-07-16 05:10:00,
2013-07-16 01:15:00,75.2,54.1,30.23,ENE,75,0.0,0.0,48,0.00,,,-99.99,Weather View 32 v60,2013-07-16 05:15:00,
2013-07-16 01:25:00,75.0,54.5,30.23,ENE,75,0.0,0.0,49,0.00,,,-99.99,Weather View 32 v60,2013-07-16 05:25:00,
2013-07-16 01:30:00,75.0,55.1,30.23,ENE,75,0.0,0.0,50,0.00,,,-99.99,Weather View 32 v60,2013-07-16 05:30:00,
2013-07-16 01:40:00,74.8,54.3,30.23,ENE,75,0.0,0.0,49,0.00,,,-99.99,Weather View 32 v60,2013-07-16 05:40:00,
2013-07-16 01:45:00,74.7,54.7,30.23,ENE,75,0.0,0.0,50,0.00,,,-99.99,Weather View 32 v60,2013-07-16 05:45:00,
2013-07-16 01:50:00,74.7,54.7,30.23,ENE,75,0.0,0.0,50,0.00,,,-99.99,Weather View 32 v60,2013-07-16 05:50:00,
2013-07-16 01:55:00,74.7,55.8,30.23,ENE,75,0.0,0.0,52,0.00,,,-99.99,Weather View 32 v60,2013-07-16 05:55:00,
2013-07-16 02:00:00,74.5,56.2,30.23,ENE,75,0.0,0.0,53,0.00,,,-99.99,Weather View 32 v60,2013-07-16 06:00:00,
2013-07-16 02:05:00,74.5,55.6,30.23,ENE,75,0.0,0.0,52,0.00,,,-99.99,Weather View 32 v60,2013-07-16 06:05:00,
2013-07-16 02:10:00,74.5,56.2,30.23,ENE,75,0.0,0.0,53,0.00,,,-99.99,Weather View 32 v60,2013-07-16 06:10:00,
2013-07-16 02:15:00,74.5,56.2,30.23,ENE,75,0.0,0.0,53,0.00,,,-99.99,Weather View 32 v60,2013-07-16 06:15:00,
2013-07-16 02:20:00,74.5,56.7,30.23,ENE,75,0.0,0.0,54,0.00,,,-99.99,Weather View 32 v60,2013-07-16 06:20:00,
2013-07-16 02:25:00,74.5,58.2,30.23,ENE,75,0.0,0.0,57,0.00,,,-99.99,Weather View 32 v60,2013-07-16 06:25:00,
2013-07-16 02:30:00,74.5,59.2,30.23,ENE,75,0.0,0.0,59,0.00,,,-99.99,Weather View 32 v60,2013-07-16 06:30:00,
2013-07-16 02:35:00,74.5,59.2,30.23,ENE,75,0.0,0.0,59,0.00,,,-99.99,Weather View 32 v60,2013-07-16 06:35:00,
2013-07-16 02:40:00,74.5,59.2,30.23,ENE,75,0.0,0.0,59,0.00,,,-99.99,Weather View 32 v60,2013-07-16 06:40:00,
2013-07-16 02:45:00,74.5,58.2,30.23,ENE,75,0.0,0.0,57,0.00,,,-99.99,Weather View 32 v60,2013-07-16 06:45:00,
2013-07-16 02:55:00,74.3,57.0,30.23,ENE,75,0.0,0.0,55,0.00,,,-99.99,Weather View 32 v60,2013-07-16 06:55:00,
2013-07-16 03:00:00,74.3,57.0,30.23,ENE,75,0.0,0.0,55,0.00,,,-99.99,Weather View 32 v60,2013-07-16 07:00:00,
2013-07-16 03:05:00,74.3,57.0,30.23,ENE,75,0.0,0.0,55,0.00,,,-99.99,Weather View 32 v60,2013-07-16 07:05:00,
2013-07-16 03:10:00,74.3,57.5,30.23,ENE,75,0.0,0.0,56,0.00,,,-99.99,Weather View 32 v60,2013-07-16 07:10:00,
2013-07-16 03:15:00,74.3,57.5,30.23,ENE,75,0.0,0.0,56,0.00,,,-99.99,Weather View 32 v60,2013-07-16 07:15:00,
2013-07-16 03:20:00,74.3,57.5,30.23,ENE,75,0.0,0.0,56,0.00,,,-99.99,Weather View 32 v60,2013-07-16 07:20:00,
2013-07-16 03:25:00,74.3,57.5,30.23,ENE,75,0.0,0.0,56,0.00,,,-99.99,Weather View 32 v60,2013-07-16 07:25:00,
2013-07-16 03:30:00,74.1,56.9,30.23,ENE,75,0.0,0.0,55,0.00,,,-99.99,Weather View 32 v60,2013-07-16 07:30:00,
2013-07-16 03:35:00,74.1,56.4,30.23,ENE,75,0.0,0.0,54,0.00,,,-99.99,Weather View 32 v60,2013-07-16 07:35:00,
2013-07-16 03:40:00,74.1,56.9,30.23,ENE,75,0.0,0.0,55,0.00,,,-99.99,Weather View 32 v60,2013-07-16 07:40:00,
2013-07-16 03:45:00,73.9,56.7,30.23,ENE,75,0.0,0.0,55,0.00,,,-99.99,Weather View 32 v60,2013-07-16 07:45:00,
2013-07-16 03:50:00,73.9,57.2,30.23,ENE,75,0.0,0.0,56,0.00,,,-99.99,Weather View 32 v60,2013-07-16 07:50:00,
2013-07-16 03:55:00,73.9,58.2,30.23,ENE,75,0.0,0.0,58,0.00,,,-99.99,Weather View 32 v60,2013-07-16 07:55:00,
2013-07-16 04:00:00,73.8,58.5,30.23,ENE,75,0.0,0.0,59,0.00,,,-99.99,Weather View 32 v60,2013-07-16 08:00:00,
2013-07-16 04:05:00,73.8,58.5,30.23,ENE,75,0.0,0.0,59,0.00,,,-99.99,Weather View 32 v60,2013-07-16 08:05:00,
2013-07-16 04:10:00,73.6,58.3,30.23,ENE,75,0.0,0.0,59,0.00,,,-99.99,Weather View 32 v60,2013-07-16 08:10:00,
2013-07-16 04:15:00,73.6,58.3,30.23,ENE,75,0.0,0.0,59,0.00,,,-99.99,Weather View 32 v60,2013-07-16 08:15:00,
2013-07-16 04:20:00,73.6,57.8,30.23,ENE,75,0.0,0.0,58,0.00,,,-99.99,Weather View 32 v60,2013-07-16 08:20:00,
2013-07-16 04:25:00,73.4,57.2,30.23,ENE,75,0.0,0.0,57,0.00,,,-99.99,Weather View 32 v60,2013-07-16 08:25:00,
2013-07-16 04:30:00,73.4,56.7,30.23,ENE,75,0.0,0.0,56,0.00,,,-99.99,Weather View 32 v60,2013-07-16 08:30:00,
2013-07-16 04:35:00,73.4,56.2,30.23,ENE,75,0.0,0.0,55,0.00,,,-99.99,Weather View 32 v60,2013-07-16 08:35:00,
2013-07-16 04:45:00,73.2,57.0,30.23,ENE,75,0.0,0.0,57,0.00,,,-99.99,Weather View 32 v60,2013-07-16 08:45:00,
2013-07-16 04:50:00,73.2,57.0,30.23,ENE,75,0.0,0.0,57,0.00,,,-99.99,Weather View 32 v60,2013-07-16 08:50:00,
2013-07-16 04:55:00,73.0,56.9,30.23,ENE,75,0.0,0.0,57,0.00,,,-99.99,Weather View 32 v60,2013-07-16 08:55:00,
2013-07-16 05:00:00,73.0,56.9,30.23,ENE,75,0.0,0.0,57,0.00,,,-99.99,Weather View 32 v60,2013-07-16 09:00:00,
2013-07-16 05:05:00,73.0,56.9,30.23,ENE,75,0.0,0.0,57,0.00,,,-99.99,Weather View 32 v60,2013-07-16 09:05:00,
2013-07-16 05:10:00,72.9,56.7,30.23,ENE,75,0.0,0.0,57,0.00,,,-99.99,Weather View 32 v60,2013-07-16 09:10:00,
2013-07-16 05:15:00,72.9,56.2,30.23,ENE,75,0.0,0.0,56,0.00,,,-99.99,Weather View 32 v60,2013-07-16 09:15:00,
2013-07-16 05:20:00,72.7,56.5,30.26,ENE,75,0.0,0.0,57,0.00,,,-99.99,Weather View 32 v60,2013-07-16 09:20:00,
2013-07-16 05:25:00,72.7,56.5,30.26,ENE,75,0.0,0.0,57,0.00,,,-99.99,Weather View 32 v60,2013-07-16 09:25:00,
2013-07-16 05:35:00,72.5,56.8,30.26,ENE,75,0.0,0.0,58,0.00,,,-99.99,Weather View 32 v60,2013-07-16 09:35:00,
2013-07-16 05:40:00,72.5,57.3,30.26,ENE,75,0.0,0.0,59,0.00,,,-99.99,Weather View 32 v60,2013-07-16 09:40:00,
2013-07-16 05:45:00,72.3,57.1,30.26,ENE,75,0.0,0.0,59,0.00,,,-99.99,Weather View 32 v60,2013-07-16 09:45:00,
2013-07-16 05:50:00,72.3,57.1,30.26,ENE,75,0.0,0.0,59,0.00,,,-99.99,Weather View 32 v60,2013-07-16 09:50:00,
2013-07-16 05:55:00,72.3,57.1,30.26,ENE,75,0.0,0.0,59,0.00,,,-99.99,Weather View 32 v60,2013-07-16 09:55:00,
2013-07-16 06:05:00,72.1,56.0,30.26,ENE,75,0.0,0.0,57,0.00,,,-99.99,Weather View 32 v60,2013-07-16 10:05:00,
2013-07-16 06:10:00,72.0,55.8,30.26,ENE,75,0.0,0.0,57,0.00,,,-99.99,Weather View 32 v60,2013-07-16 10:10:00,
2013-07-16 06:15:00,72.0,55.8,30.26,ENE,75,0.0,0.0,57,0.00,,,-99.99,Weather View 32 v60,2013-07-16 10:15:00,
2013-07-16 06:20:00,71.8,55.2,30.26,ENE,75,0.0,0.0,56,0.00,,,-99.99,Weather View 32 v60,2013-07-16 10:20:00,
2013-07-16 06:25:00,71.8,55.2,30.26,ENE,75,0.0,0.0,56,0.00,,,-99.99,Weather View 32 v60,2013-07-16 10:25:00,
2013-07-16 06:30:00,71.8,55.2,30.26,ENE,75,0.0,0.0,56,0.00,,,-99.99,Weather View 32 v60,2013-07-16 10:30:00,
2013-07-16 06:35:00,71.6,55.0,30.26,ENE,75,0.0,0.0,56,0.00,,,-99.99,Weather View 32 v60,2013-07-16 10:35:00,
2013-07-16 06:40:00,71.6,55.5,30.26,ENE,75,0.0,0.0,57,0.00,,,-99.99,Weather View 32 v60,2013-07-16 10:40:00,
2013-07-16 06:45:00,71.6,56.0,30.26,ENE,75,0.0,0.0,58,0.00,,,-99.99,Weather View 32 v60,2013-07-16 10:45:00,
2013-07-16 06:50:00,71.6,56.0,30.26,ENE,75,0.0,0.0,58,0.00,,,-99.99,Weather View 32 v60,2013-07-16 10:50:00,
2013-07-16 06:55:00,71.4,55.3,30.26,ENE,75,0.0,0.0,57,0.00,,,-99.99,Weather View 32 v60,2013-07-16 10:55:00,
2013-07-16 07:00:00,71.4,54.9,30.26,ENE,75,0.0,0.0,56,0.00,,,-99.99,Weather View 32 v60,2013-07-16 11:00:00,
2013-07-16 07:05:00,71.4,54.9,30.26,ENE,75,0.0,0.0,56,0.00,,,-99.99,Weather View 32 v60,2013-07-16 11:05:00,
2013-07-16 07:10:00,71.4,54.9,30.26,ENE,75,0.0,0.0,56,0.00,,,-99.99,Weather View 32 v60,2013-07-16 11:10:00,
2013-07-16 07:20:00,71.6,54.5,30.26,ENE,75,0.0,0.0,55,0.00,,,-99.99,Weather View 32 v60,2013-07-16 11:20:00,
2013-07-16 07:25:00,71.6,54.5,30.26,ENE,75,0.0,0.0,55,0.00,,,-99.99,Weather View 32 v60,2013-07-16 11:25:00,
2013-07-16 07:30:00,71.8,55.2,30.26,ENE,75,0.0,0.0,56,0.00,,,-99.99,Weather View 32 v60,2013-07-16 11:30:00,
2013-07-16 07:35:00,71.8,55.7,30.26,ENE,75,0.0,0.0,57,0.00,,,-99.99,Weather View 32 v60,2013-07-16 11:35:00,
2013-07-16 07:40:00,72.1,57.0,30.26,ENE,75,0.0,0.0,59,0.00,,,-99.99,Weather View 32 v60,2013-07-16 11:40:00,
2013-07-16 07:45:00,72.5,58.2,30.26,ENE,75,0.0,0.0,61,0.00,,,-99.99,Weather View 32 v60,2013-07-16 11:45:00,
2013-07-16 07:50:00,72.7,59.3,30.26,WSW,257,3.0,3.0,63,0.00,,,-99.99,Weather View 32 v60,2013-07-16 11:50:00,
2013-07-16 07:55:00,73.2,60.3,30.26,WNW,284,4.0,4.0,64,0.00,,,-99.99,Weather View 32 v60,2013-07-16 11:55:00,
2013-07-16 08:00:00,73.6,61.5,30.26,West,280,4.0,4.0,66,0.00,,,-99.99,Weather View 32 v60,2013-07-16 12:00:00,
2013-07-16 08:05:00,73.9,62.2,30.26,West,280,0.0,4.0,67,0.00,,,-99.99,Weather View 32 v60,2013-07-16 12:05:00,
2013-07-16 08:10:00,74.3,62.6,30.26,WNW,294,4.0,4.0,67,0.00,,,-99.99,Weather View 32 v60,2013-07-16 12:10:00,
2013-07-16 08:15:00,74.7,62.9,30.26,WSW,251,0.0,4.0,67,0.00,,,-99.99,Weather View 32 v60,2013-07-16 12:15:00,
2013-07-16 08:20:00,75.0,62.8,30.26,WNW,289,2.0,4.0,66,0.00,,,-99.99,Weather View 32 v60,2013-07-16 12:20:00,
2013-07-16 08:25:00,75.2,63.0,30.26,West,281,4.0,6.0,66,0.00,,,-99.99,Weather View 32 v60,2013-07-16 12:25:00,
2013-07-16 08:30:00,75.6,63.4,30.26,WNW,286,3.0,7.0,66,0.00,,,-99.99,Weather View 32 v60,2013-07-16 12:30:00,
2013-07-16 08:35:00,76.1,63.4,30.26,West,272,4.0,7.0,65,0.00,,,-99.99,Weather View 32 v60,2013-07-16 12:35:00,
2013-07-16 08:40:00,76.5,63.3,30.26,WNW,295,3.0,7.0,64,0.00,,,-99.99,Weather View 32 v60,2013-07-16 12:40:00,
2013-07-16 08:45:00,76.8,63.2,30.26,West,270,5.0,7.0,63,0.00,,,-99.99,Weather View 32 v60,2013-07-16 12:45:00,
2013-07-16 08:50:00,77.2,63.1,30.26,WSW,256,3.0,7.0,62,0.00,,,-99.99,Weather View 32 v60,2013-07-16 12:50:00,
2013-07-16 08:55:00,77.5,62.5,30.26,West,268,5.0,7.0,60,0.00,,,-99.99,Weather View 32 v60,2013-07-16 12:55:00,
2013-07-16 09:00:00,77.9,62.4,30.26,WNW,282,4.0,7.0,59,0.00,,,-99.99,Weather View 32 v60,2013-07-16 13:00:00,
2013-07-16 09:05:00,78.1,62.0,30.29,West,260,5.0,7.0,58,0.00,,,-99.99,Weather View 32 v60,2013-07-16 13:05:00,
2013-07-16 09:10:00,78.4,61.9,30.29,WSW,254,5.0,7.0,57,0.00,,,-99.99,Weather View 32 v60,2013-07-16 13:10:00,
2013-07-16 09:15:00,78.6,61.6,30.29,WSW,241,6.0,7.0,56,0.00,,,-99.99,Weather View 32 v60,2013-07-16 13:15:00,
2013-07-16 09:20:00,78.8,60.7,30.26,West,281,4.0,7.0,54,0.00,,,-99.99,Weather View 32 v60,2013-07-16 13:20:00,
2013-07-16 09:25:00,79.0,60.3,30.26,WSW,251,4.0,7.0,53,0.00,,,-99.99,Weather View 32 v60,2013-07-16 13:25:00,
2013-07-16 09:30:00,79.2,60.5,30.26,West,266,6.0,7.0,53,0.00,,,-99.99,Weather View 32 v60,2013-07-16 13:30:00,
2013-07-16 09:35:00,79.3,60.1,30.26,WNW,295,4.0,6.0,52,0.00,,,-99.99,Weather View 32 v60,2013-07-16 13:35:00,
2013-07-16 09:40:00,79.5,60.3,30.26,West,266,4.0,7.0,52,0.00,,,-99.99,Weather View 32 v60,2013-07-16 13:40:00,
2013-07-16 09:50:00,80.1,59.7,30.26,WNW,286,4.0,7.0,50,0.00,,,-99.99,Weather View 32 v60,2013-07-16 13:50:00,
2013-07-16 09:55:00,80.2,59.3,30.26,NW,310,3.0,7.0,49,0.00,,,-99.99,Weather View 32 v60,2013-07-16 13:55:00,
2013-07-16 10:05:00,80.8,58.6,30.26,West,275,3.0,7.0,47,0.00,,,-99.99,Weather View 32 v60,2013-07-16 14:05:00,
2013-07-16 10:10:00,81.0,58.8,30.26,WSW,246,5.0,8.0,47,0.00,,,-99.99,Weather View 32 v60,2013-07-16 14:10:00,
2013-07-16 10:15:00,81.3,58.5,30.26,WNW,302,4.0,8.0,46,0.00,,,-99.99,Weather View 32 v60,2013-07-16 14:15:00,
2013-07-16 10:20:00,81.7,57.6,30.26,WNW,301,5.0,8.0,44,0.00,,,-99.99,Weather View 32 v60,2013-07-16 14:20:00,
2013-07-16 10:25:00,81.9,56.4,30.26,NW,308,3.0,8.0,42,0.00,,,-99.99,Weather View 32 v60,2013-07-16 14:25:00,
2013-07-16 10:30:00,82.2,55.4,30.26,NW,315,3.0,8.0,40,0.00,,,-99.99,Weather View 32 v60,2013-07-16 14:30:00,
2013-07-16 10:35:00,82.6,54.3,30.26,NW,305,2.0,8.0,38,0.00,,,-99.99,Weather View 32 v60,2013-07-16 14:35:00,
2013-07-16 10:45:00,83.1,52.5,30.26,NW,306,4.0,8.0,35,0.00,,,-99.99,Weather View 32 v60,2013-07-16 14:45:00,
2013-07-16 10:50:00,83.5,51.3,30.26,NW,310,3.0,9.0,33,0.00,,,-99.99,Weather View 32 v60,2013-07-16 14:50:00,
2013-07-16 10:55:00,83.7,50.6,30.26,WNW,301,4.0,9.0,32,0.00,,,-99.99,Weather View 32 v60,2013-07-16 14:55:00,
2013-07-16 11:00:00,83.8,50.7,30.26,WNW,283,3.0,9.0,32,0.00,,,-99.99,Weather View 32 v60,2013-07-16 15:00:00,
2013-07-16 11:05:00,84.0,50.9,30.26,West,264,6.0,9.0,32,0.00,,,-99.99,Weather View 32 v60,2013-07-16 15:05:00,
2013-07-16 11:10:00,84.2,50.2,30.26,WNW,284,6.0,9.0,31,0.00,,,-99.99,Weather View 32 v60,2013-07-16 15:10:00,
2013-07-16 11:15:00,84.4,50.3,30.26,NW,312,3.0,9.0,31,0.00,,,-99.99,Weather View 32 v60,2013-07-16 15:15:00,
2013-07-16 11:20:00,84.6,50.5,30.26,WNW,296,6.0,9.0,31,0.00,,,-99.99,Weather View 32 v60,2013-07-16 15:20:00,
2013-07-16 11:25:00,84.7,49.8,30.26,NW,310,7.0,9.0,30,0.00,,,-99.99,Weather View 32 v60,2013-07-16 15:25:00,
2013-07-16 11:30:00,84.9,49.9,30.26,West,273,5.0,9.0,30,0.00,,,-99.99,Weather View 32 v60,2013-07-16 15:30:00,
2013-07-16 11:35:00,85.1,50.1,30.26,WNW,287,6.0,9.0,30,0.00,,,-99.99,Weather View 32 v60,2013-07-16 15:35:00,
2013-07-16 11:40:00,85.3,50.2,30.26,West,267,5.0,9.0,30,0.00,,,-99.99,Weather View 32 v60,2013-07-16 15:40:00,
2013-07-16 11:45:00,85.5,50.4,30.26,WNW,299,7.0,9.0,30,0.00,,,-99.99,Weather View 32 v60,2013-07-16 15:45:00,
2013-07-16 11:50:00,85.5,50.4,30.26,NW,311,3.0,9.0,30,0.00,,,-99.99,Weather View 32 v60,2013-07-16 15:50:00,
2013-07-16 11:55:00,85.6,50.5,30.26,NW,321,0.0,8.0,30,0.00,,,-99.99,Weather View 32 v60,2013-07-16 15:55:00,
2013-07-16 12:00:00,85.8,50.7,30.26,NW,324,0.0,8.0,30,0.00,,,-99.99,Weather View 32 v60,2013-07-16 16:00:00,
2013-07-16 12:05:00,86.0,50.9,30.26,NW,316,3.0,8.0,30,0.00,,,-99.99,Weather View 32 v60,2013-07-16 16:05:00,
2013-07-16 12:10:00,86.2,51.0,30.26,SSE,156,0.0,8.0,30,0.00,,,-99.99,Weather View 32 v60,2013-07-16 16:10:00,
2013-07-16 12:15:00,86.4,51.2,30.26,SSE,148,2.0,8.0,30,0.00,,,-99.99,Weather View 32 v60,2013-07-16 16:15:00,
2013-07-16 12:20:00,86.5,51.3,30.26,East,97,3.0,8.0,30,0.00,,,-99.99,Weather View 32 v60,2013-07-16 16:20:00,
2013-07-16 12:25:00,86.7,51.5,30.26,SW,214,0.0,8.0,30,0.00,,,-99.99,Weather View 32 v60,2013-07-16 16:25:00,
2013-07-16 12:30:00,86.9,50.7,30.26,West,263,6.0,8.0,29,0.00,,,-99.99,Weather View 32 v60,2013-07-16 16:30:00,
2013-07-16 12:35:00,87.1,50.9,30.26,West,270,4.0,8.0,29,0.00,,,-99.99,Weather View 32 v60,2013-07-16 16:35:00,
2013-07-16 12:40:00,87.1,50.9,30.26,SSW,209,5.0,8.0,29,0.00,,,-99.99,Weather View 32 v60,2013-07-16 16:40:00,
2013-07-16 12:45:00,87.1,50.9,30.26,SW,226,6.0,8.0,29,0.00,,,-99.99,Weather View 32 v60,2013-07-16 16:45:00,
2013-07-16 12:50:00,87.3,51.0,30.26,WSW,243,4.0,8.0,29,0.00,,,-99.99,Weather View 32 v60,2013-07-16 16:50:00,
2013-07-16 12:55:00,87.4,51.2,30.26,SSE,167,0.0,8.0,29,0.00,,,-99.99,Weather View 32 v60,2013-07-16 16:55:00,
2013-07-16 13:00:00,87.6,51.3,30.26,WSW,239,0.0,8.0,29,0.00,,,-99.99,Weather View 32 v60,2013-07-16 17:00:00,
2013-07-16 13:05:00,87.6,51.3,30.26,West,274,3.0,8.0,29,0.00,,,-99.99,Weather View 32 v60,2013-07-16 17:05:00,
2013-07-16 13:10:00,87.6,51.3,30.26,WSW,251,0.0,7.0,29,0.00,,,-99.99,Weather View 32 v60,2013-07-16 17:10:00,
2013-07-16 13:15:00,87.6,52.2,30.26,SW,228,2.0,7.0,30,0.00,,,-99.99,Weather View 32 v60,2013-07-16 17:15:00,
2013-07-16 13:20:00,87.6,52.2,30.26,NW,311,3.0,7.0,30,0.00,,,-99.99,Weather View 32 v60,2013-07-16 17:20:00,
2013-07-16 13:25:00,87.8,51.5,30.26,SSW,196,0.0,7.0,29,0.00,,,-99.99,Weather View 32 v60,2013-07-16 17:25:00,
2013-07-16 13:30:00,88.0,51.6,30.26,SSE,161,0.0,7.0,29,0.00,,,-99.99,Weather View 32 v60,2013-07-16 17:30:00,
2013-07-16 13:35:00,88.2,51.8,30.23,SW,227,4.0,7.0,29,0.00,,,-99.99,Weather View 32 v60,2013-07-16 17:35:00,
2013-07-16 13:40:00,88.2,51.8,30.23,SE,141,3.0,7.0,29,0.00,,,-99.99,Weather View 32 v60,2013-07-16 17:40:00,
2013-07-16 13:45:00,88.3,51.9,30.23,WNW,286,5.0,6.0,29,0.00,,,-99.99,Weather View 32 v60,2013-07-16 17:45:00,
2013-07-16 13:50:00,88.3,51.9,30.23,WSW,251,0.0,6.0,29,0.00,,,-99.99,Weather View 32 v60,2013-07-16 17:50:00,
2013-07-16 13:55:00,88.3,51.9,30.23,WNW,293,0.0,5.0,29,0.00,,,-99.99,Weather View 32 v60,2013-07-16 17:55:00,
2013-07-16 14:00:00,88.3,51.9,30.23,WNW,293,0.0,5.0,29,0.00,,,-99.99,Weather View 32 v60,2013-07-16 18:00:00,
2013-07-16 14:05:00,88.2,51.8,30.23,WNW,293,0.0,5.0,29,0.00,,,-99.99,Weather View 32 v60,2013-07-16 18:05:00,
2013-07-16 14:10:00,88.2,51.8,30.23,North,357,0.0,5.0,29,0.00,,,-99.99,Weather View 32 v60,2013-07-16 18:10:00,
2013-07-16 14:15:00,88.0,52.6,30.23,North,357,0.0,5.0,30,0.00,,,-99.99,Weather View 32 v60,2013-07-16 18:15:00,
2013-07-16 14:20:00,88.0,52.6,30.23,North,357,0.0,5.0,30,0.00,,,-99.99,Weather View 32 v60,2013-07-16 18:20:00,
2013-07-16 14:25:00,87.8,52.4,30.23,North,357,0.0,5.0,30,0.00,,,-99.99,Weather View 32 v60,2013-07-16 18:25:00,
2013-07-16 14:30:00,87.8,52.4,30.23,North,357,0.0,5.0,30,0.00,,,-99.99,Weather View 32 v60,2013-07-16 18:30:00,
2013-07-16 14:35:00,87.6,53.1,30.23,East,84,0.0,5.0,31,0.00,,,-99.99,Weather View 32 v60,2013-07-16 18:35:00,
2013-07-16 14:40:00,87.6,53.1,30.23,ESE,103,0.0,5.0,31,0.00,,,-99.99,Weather View 32 v60,2013-07-16 18:40:00,
2013-07-16 14:45:00,87.6,53.1,30.23,East,96,0.0,5.0,31,0.00,,,-99.99,Weather View 32 v60,2013-07-16 18:45:00,
2013-07-16 14:50:00,87.6,53.1,30.23,East,96,0.0,4.0,31,0.00,,,-99.99,Weather View 32 v60,2013-07-16 18:50:00,
2013-07-16 14:55:00,87.6,53.1,30.23,East,96,0.0,4.0,31,0.00,,,-99.99,Weather View 32 v60,2013-07-16 18:55:00,
2013-07-16 15:00:00,87.6,52.2,30.23,SW,223,0.0,3.0,30,0.00,,,-99.99,Weather View 32 v60,2013-07-16 19:00:00,
2013-07-16 15:05:00,87.6,52.2,30.23,WNW,293,0.0,5.0,30,0.00,,,-99.99,Weather View 32 v60,2013-07-16 19:05:00,
2013-07-16 15:10:00,87.6,52.2,30.23,WNW,282,0.0,5.0,30,0.00,,,-99.99,Weather View 32 v60,2013-07-16 19:10:00,
2013-07-16 15:15:00,87.6,52.2,30.23,WNW,282,0.0,5.0,30,0.00,,,-99.99,Weather View 32 v60,2013-07-16 19:15:00,
2013-07-16 15:20:00,87.6,52.2,30.20,West,260,0.0,5.0,30,0.00,,,-99.99,Weather View 32 v60,2013-07-16 19:20:00,
2013-07-16 15:25:00,87.6,52.2,30.20,WNW,284,0.0,5.0,30,0.00,,,-99.99,Weather View 32 v60,2013-07-16 19:25:00,
2013-07-16 15:30:00,87.8,52.4,30.20,WSW,237,3.0,5.0,30,0.00,,,-99.99,Weather View 32 v60,2013-07-16 19:30:00,
2013-07-16 15:35:00,88.0,51.6,30.20,WNW,284,3.0,6.0,29,0.00,,,-99.99,Weather View 32 v60,2013-07-16 19:35:00,
2013-07-16 15:40:00,88.2,51.8,30.20,WSW,240,0.0,7.0,29,0.00,,,-99.99,Weather View 32 v60,2013-07-16 19:40:00,
2013-07-16 15:50:00,88.3,51.9,30.20,SSW,196,0.0,7.0,29,0.00,,,-99.99,Weather View 32 v60,2013-07-16 19:50:00,
2013-07-16 15:55:00,88.5,52.1,30.20,SW,227,4.0,7.0,29,0.00,,,-99.99,Weather View 32 v60,2013-07-16 19:55:00,
2013-07-16 16:05:00,88.7,52.2,30.20,WNW,283,3.0,7.0,29,0.00,,,-99.99,Weather View 32 v60,2013-07-16 20:05:00,
2013-07-16 16:10:00,88.7,52.2,30.20,SSE,160,3.0,7.0,29,0.00,,,-99.99,Weather View 32 v60,2013-07-16 20:10:00,
2013-07-16 16:15:00,88.7,52.2,30.20,WSW,252,3.0,7.0,29,0.00,,,-99.99,Weather View 32 v60,2013-07-16 20:15:00,
2013-07-16 16:20:00,88.7,52.2,30.20,WSW,248,4.0,7.0,29,0.00,,,-99.99,Weather View 32 v60,2013-07-16 20:20:00,
2013-07-16 16:25:00,88.9,52.4,30.20,West,273,4.0,8.0,29,0.00,,,-99.99,Weather View 32 v60,2013-07-16 20:25:00,
2013-07-16 16:35:00,89.1,51.6,30.20,WSW,247,0.0,8.0,28,0.00,,,-99.99,Weather View 32 v60,2013-07-16 20:35:00,
2013-07-16 16:50:00,89.1,51.6,30.20,WSW,240,5.0,8.0,28,0.00,,,-99.99,Weather View 32 v60,2013-07-16 20:50:00,
2013-07-16 16:55:00,89.2,51.8,30.20,WNW,282,4.0,8.0,28,0.00,,,-99.99,Weather View 32 v60,2013-07-16 20:55:00,
2013-07-16 17:00:00,89.4,51.9,30.20,WSW,239,6.0,8.0,28,0.00,,,-99.99,Weather View 32 v60,2013-07-16 21:00:00,
2013-07-16 17:05:00,89.4,51.9,30.20,WSW,245,4.0,8.0,28,0.00,,,-99.99,Weather View 32 v60,2013-07-16 21:05:00,
2013-07-16 17:10:00,89.4,51.9,30.20,WSW,257,3.0,9.0,28,0.00,,,-99.99,Weather View 32 v60,2013-07-16 21:10:00,
2013-07-16 17:15:00,89.4,51.9,30.20,West,269,3.0,9.0,28,0.00,,,-99.99,Weather View 32 v60,2013-07-16 21:15:00,
2013-07-16 17:25:00,89.8,51.2,30.20,West,267,7.0,11.0,27,0.00,,,-99.99,Weather View 32 v60,2013-07-16 21:25:00,
2013-07-16 17:30:00,90.0,51.4,30.20,West,278,3.0,11.0,27,0.00,,,-99.99,Weather View 32 v60,2013-07-16 21:30:00,
2013-07-16 17:35:00,90.1,51.5,30.20,West,276,11.0,11.0,27,0.00,,,-99.99,Weather View 32 v60,2013-07-16 21:35:00,
2013-07-16 17:40:00,90.1,51.5,30.20,West,273,6.0,11.0,27,0.00,,,-99.99,Weather View 32 v60,2013-07-16 21:40:00,
2013-07-16 17:45:00,90.5,51.8,30.20,West,268,9.0,11.0,27,0.00,,,-99.99,Weather View 32 v60,2013-07-16 21:45:00,
2013-07-16 17:50:00,90.7,49.9,30.20,WSW,251,8.0,11.0,25,0.00,,,-99.99,Weather View 32 v60,2013-07-16 21:50:00,
2013-07-16 17:55:00,91.0,49.1,30.20,West,271,10.0,12.0,24,0.00,,,-99.99,Weather View 32 v60,2013-07-16 21:55:00,
2013-07-16 18:05:00,91.2,49.3,30.20,West,261,8.0,13.0,24,0.00,,,-99.99,Weather View 32 v60,2013-07-16 22:05:00,
2013-07-16 18:10:00,91.2,48.1,30.20,West,275,10.0,13.0,23,0.00,,,-99.99,Weather View 32 v60,2013-07-16 22:10:00,
2013-07-16 18:15:00,91.2,49.3,30.20,WNW,282,6.0,13.0,24,0.00,,,-99.99,Weather View 32 v60,2013-07-16 22:15:00,
2013-07-16 18:20:00,91.2,49.3,30.20,WSW,252,8.0,13.0,24,0.00,,,-99.99,Weather View 32 v60,2013-07-16 22:20:00,
2013-07-16 18:25:00,91.2,49.3,30.20,West,267,5.0,13.0,24,0.00,,,-99.99,Weather View 32 v60,2013-07-16 22:25:00,
2013-07-16 18:30:00,91.2,48.1,30.20,West,274,9.0,13.0,23,0.00,,,-99.99,Weather View 32 v60,2013-07-16 22:30:00,
2013-07-16 18:35:00,91.2,49.3,30.20,SW,235,5.0,13.0,24,0.00,,,-99.99,Weather View 32 v60,2013-07-16 22:35:00,
2013-07-16 18:40:00,91.2,49.3,30.20,West,261,6.0,13.0,24,0.00,,,-99.99,Weather View 32 v60,2013-07-16 22:40:00,
2013-07-16 18:50:00,91.0,48.0,30.20,West,271,9.0,13.0,23,0.00,,,-99.99,Weather View 32 v60,2013-07-16 22:50:00,
2013-07-16 18:55:00,91.0,48.0,30.20,West,279,6.0,13.0,23,0.00,,,-99.99,Weather View 32 v60,2013-07-16 22:55:00,
2013-07-16 19:00:00,90.9,47.8,30.20,West,261,6.0,13.0,23,0.00,,,-99.99,Weather View 32 v60,2013-07-16 23:00:00,
2013-07-16 19:05:00,90.7,48.8,30.20,WSW,246,4.0,13.0,24,0.00,,,-99.99,Weather View 32 v60,2013-07-16 23:05:00,
2013-07-16 19:10:00,90.7,48.8,30.20,West,259,8.0,13.0,24,0.00,,,-99.99,Weather View 32 v60,2013-07-16 23:10:00,
2013-07-16 19:15:00,90.7,48.8,30.20,West,274,6.0,13.0,24,0.00,,,-99.99,Weather View 32 v60,2013-07-16 23:15:00,
2013-07-16 19:20:00,90.5,48.7,30.20,West,280,8.0,13.0,24,0.00,,,-99.99,Weather View 32 v60,2013-07-16 23:20:00,
2013-07-16 19:25:00,90.5,48.7,30.20,WSW,246,8.0,13.0,24,0.00,,,-99.99,Weather View 32 v60,2013-07-16 23:25:00,
2013-07-16 19:35:00,90.1,48.4,30.20,WSW,249,8.0,13.0,24,0.00,,,-99.99,Weather View 32 v60,2013-07-16 23:35:00,
2013-07-16 19:40:00,89.8,48.1,30.20,WSW,254,8.0,13.0,24,0.00,,,-99.99,Weather View 32 v60,2013-07-16 23:40:00,
2013-07-16 19:45:00,89.6,47.9,30.20,WSW,237,6.0,13.0,24,0.00,,,-99.99,Weather View 32 v60,2013-07-16 23:45:00,
2013-07-16 19:50:00,89.4,47.8,30.20,WNW,289,6.0,15.0,24,0.00,,,-99.99,Weather View 32 v60,2013-07-16 23:50:00,
2013-07-16 19:55:00,89.2,47.6,30.20,WNW,297,7.0,15.0,24,0.00,,,-99.99,Weather View 32 v60,2013-07-16 23:55:00,
2013-07-16 20:00:00,89.1,48.5,30.20,WNW,286,6.0,15.0,25,0.00,,,-99.99,Weather View 32 v60,2013-07-17 00:00:00,
2013-07-16 20:05:00,88.9,48.4,30.20,WNW,291,5.0,15.0,25,0.00,,,-99.99,Weather View 32 v60,2013-07-17 00:05:00,
2013-07-16 20:15:00,88.9,49.4,30.20,West,264,5.0,15.0,26,0.00,,,-99.99,Weather View 32 v60,2013-07-17 00:15:00,
2013-07-16 20:20:00,88.7,49.3,30.20,WSW,258,3.0,15.0,26,0.00,,,-99.99,Weather View 32 v60,2013-07-17 00:20:00,
2013-07-16 20:25:00,88.7,49.3,30.20,West,278,3.0,15.0,26,0.00,,,-99.99,Weather View 32 v60,2013-07-17 00:25:00,
2013-07-16 20:30:00,88.7,49.3,30.20,West,266,6.0,15.0,26,0.00,,,-99.99,Weather View 32 v60,2013-07-17 00:30:00,
2013-07-16 20:35:00,88.5,49.1,30.20,WSW,238,4.0,15.0,26,0.00,,,-99.99,Weather View 32 v60,2013-07-17 00:35:00,
2013-07-16 20:40:00,88.3,49.0,30.20,West,281,6.0,15.0,26,0.00,,,-99.99,Weather View 32 v60,2013-07-17 00:40:00,
2013-07-16 20:45:00,88.2,49.8,30.20,WSW,243,3.0,15.0,27,0.00,,,-99.99,Weather View 32 v60,2013-07-17 00:45:00,
2013-07-16 20:55:00,87.8,49.5,30.20,WSW,246,4.0,10.0,27,0.00,,,-99.99,Weather View 32 v60,2013-07-17 00:55:00,
2013-07-16 21:00:00,87.6,50.4,30.20,WSW,252,4.0,10.0,28,0.00,,,-99.99,Weather View 32 v60,2013-07-17 01:00:00,
2013-07-16 21:05:00,87.3,50.1,30.20,West,275,3.0,8.0,28,0.00,,,-99.99,Weather View 32 v60,2013-07-17 01:05:00,
2013-07-16 21:10:00,87.1,49.9,30.20,WSW,258,4.0,8.0,28,0.00,,,-99.99,Weather View 32 v60,2013-07-17 01:10:00,
2013-07-16 21:15:00,86.7,49.6,30.20,WSW,251,4.0,8.0,28,0.00,,,-99.99,Weather View 32 v60,2013-07-17 01:15:00,
2013-07-16 21:20:00,86.4,49.3,30.20,WSW,244,3.0,8.0,28,0.00,,,-99.99,Weather View 32 v60,2013-07-17 01:20:00,
2013-07-16 21:25:00,86.2,49.1,30.20,WSW,239,0.0,8.0,28,0.00,,,-99.99,Weather View 32 v60,2013-07-17 01:25:00,
2013-07-16 21:30:00,85.8,49.8,30.20,WSW,239,0.0,8.0,29,0.00,,,-99.99,Weather View 32 v60,2013-07-17 01:30:00,
2013-07-16 21:40:00,85.3,49.3,30.20,WSW,239,0.0,6.0,29,0.00,,,-99.99,Weather View 32 v60,2013-07-17 01:40:00,
2013-07-16 21:45:00,85.1,49.2,30.20,WSW,240,0.0,6.0,29,0.00,,,-99.99,Weather View 32 v60,2013-07-17 01:45:00,
2013-07-16 21:50:00,84.6,48.7,30.20,West,263,0.0,6.0,29,0.00,,,-99.99,Weather View 32 v60,2013-07-17 01:50:00,
2013-07-16 21:55:00,84.2,48.4,30.20,West,263,0.0,6.0,29,0.00,,,-99.99,Weather View 32 v60,2013-07-17 01:55:00,
2013-07-16 22:00:00,83.8,49.0,30.20,West,263,0.0,5.0,30,0.00,,,-99.99,Weather View 32 v60,2013-07-17 02:00:00,
2013-07-16 22:05:00,83.5,48.7,30.20,West,263,0.0,5.0,30,0.00,,,-99.99,Weather View 32 v60,2013-07-17 02:05:00,
2013-07-16 22:15:00,82.8,48.1,30.20,WSW,237,0.0,5.0,30,0.00,,,-99.99,Weather View 32 v60,2013-07-17 02:15:00,
2013-07-16 22:20:00,82.4,48.6,30.20,WSW,237,0.0,5.0,31,0.00,,,-99.99,Weather View 32 v60,2013-07-17 02:20:00,
2013-07-16 22:25:00,82.0,49.2,30.20,WSW,237,0.0,3.0,32,0.00,,,-99.99,Weather View 32 v60,2013-07-17 02:25:00,
2013-07-16 22:30:00,81.7,48.9,30.20,SSW,195,0.0,3.0,32,0.00,,,-99.99,Weather View 32 v60,2013-07-17 02:30:00,
2013-07-16 22:35:00,81.3,48.5,30.20,WSW,243,0.0,3.0,32,0.00,,,-99.99,Weather View 32 v60,2013-07-17 02:35:00,
2013-07-16 22:40:00,81.1,48.4,30.20,West,269,0.0,3.0,32,0.00,,,-99.99,Weather View 32 v60,2013-07-17 02:40:00,
2013-07-16 22:45:00,81.0,48.2,30.20,West,265,0.0,3.0,32,0.00,,,-99.99,Weather View 32 v60,2013-07-17 02:45:00,
2013-07-16 22:50:00,80.8,48.9,30.20,WSW,247,0.0,3.0,33,0.00,,,-99.99,Weather View 32 v60,2013-07-17 02:50:00,
2013-07-16 22:55:00,80.6,48.7,30.20,WSW,255,0.0,3.0,33,0.00,,,-99.99,Weather View 32 v60,2013-07-17 02:55:00,
2013-07-16 23:05:00,80.1,49.9,30.23,WSW,255,0.0,3.0,35,0.00,,,-99.99,Weather View 32 v60,2013-07-17 03:05:00,
2013-07-16 23:10:00,79.9,49.7,30.23,WSW,255,0.0,3.0,35,0.00,,,-99.99,Weather View 32 v60,2013-07-17 03:10:00,
2013-07-16 23:15:00,79.7,49.5,30.23,WSW,255,0.0,3.0,35,0.00,,,-99.99,Weather View 32 v60,2013-07-17 03:15:00,
2013-07-16 23:20:00,79.5,49.4,30.20,WSW,255,0.0,3.0,35,0.00,,,-99.99,Weather View 32 v60,2013-07-17 03:20:00,
2013-07-16 23:25:00,79.3,49.2,30.20,WSW,255,0.0,3.0,35,0.00,,,-99.99,Weather View 32 v60,2013-07-17 03:25:00,
2013-07-16 23:30:00,79.2,49.1,30.20,WSW,255,0.0,3.0,35,0.00,,,-99.99,Weather View 32 v60,2013-07-17 03:30:00,
2013-07-16 23:35:00,78.8,48.8,30.23,WSW,255,0.0,3.0,35,0.00,,,-99.99,Weather View 32 v60,2013-07-17 03:35:00,
2013-07-16 23:45:00,78.4,49.9,30.23,WSW,255,0.0,3.0,37,0.00,,,-99.99,Weather View 32 v60,2013-07-17 03:45:00,
2013-07-16 23:50:00,78.3,50.5,30.23,WSW,255,0.0,0.0,38,0.00,,,-99.99,Weather View 32 v60,2013-07-17 03:50:00,
2013-07-16 23:55:00,78.1,50.3,30.23,WSW,255,0.0,0.0,38,0.00,,,-99.99,Weather View 32 v60,2013-07-17 03:55:00,